Provincetown, MA

4:00 PM EST on January 20, 2017 (GMT -0500)
Provincetown Municipal

Weather History for KPVC - May, 2014

Change the Weather History Date:

Wednesday, May 28, 2014

  Actual Average Record
Temperature  
Mean Temperature 48 °F -  
Max Temperature 50 °F 63 °F 79 °F (2016)
Min Temperature 46 °F 49 °F 39 °F (1997)
Degree Days  
Heating Degree Days 17    
Moisture  
Dew Point 45 °F    
Average Humidity 91    
Maximum Humidity 100    
Minimum Humidity 87    
Precipitation  
Precipitation 0.01 in - - ()
Sea Level Pressure  
Sea Level Pressure 30.12 in    
Wind  
Wind Speed - (North)    
Max Wind Speed -    
Max Gust Speed -    
Visibility 7 miles    
Events      
Averages and records for this station are not official NWS values.
T = Trace of Precipitation, MM = Missing Value Source: NWS Daily Summary

Daily Weather History Graph

Daily Weather History Graph

Search for Another Location

Airport or City:

Trip Planner

Search our weather history database for the weather conditions in past years. The results will help you decide how hot, cold, wet, or windy it might be!

Date:

Astronomy

May. 28, 2014 Rise Set
Actual Time 5:09 AM EDT 8:07 PM EDT
Civil Twilight 4:36 AM EDT 8:40 PM EDT
Nautical Twilight 3:54 AM EDT 9:22 PM EDT
Astronomical Twilight 3:04 AM EDT 10:12 PM EDT
Moon 5:14 AM EDT (5/28) 8:01 PM EDT (5/28)
Length of Visible Light 16h 03m
Length of Day
14h 57m
Waning Crescent, 0% of the Moon is Illuminated
May 28
Waning Crescent
May 28
New
Jun 5
First Quarter
Jun 13
Full
Jun 19
Last Quarter

Hourly Weather History & Observations

Time (EDT) Temp. Dew Point Humidity Pressure Visibility Wind Dir Wind Speed Gust Speed Precip Events Conditions
11:15 AM 48.2 °F 46.4 °F 93% 30.03 in 1.8 mi North - - N/A   Overcast
11:35 AM 48.2 °F 48.2 °F 100% 30.02 in 2.5 mi North - - N/A   Overcast
11:55 AM 48.2 °F 48.2 °F 100% 30.03 in 5.0 mi North - - N/A   Overcast
12:15 PM 48.2 °F 48.2 °F 100% 30.03 in 9.0 mi North - - N/A   Overcast
12:55 PM 50.0 °F 48.2 °F 94% 30.04 in 10.0 mi North - - N/A   Overcast
1:15 PM 50.0 °F 46.4 °F 87% 30.05 in 10.0 mi North - - N/A   Overcast
1:35 PM 48.2 °F 46.4 °F 93% 30.06 in 10.0 mi North - - N/A   Overcast
2:15 PM 48.2 °F 46.4 °F 93% 30.07 in 5.0 mi North - - N/A   Overcast
2:55 PM 48.2 °F 46.4 °F 93% 30.09 in 2.5 mi North - - N/A   Overcast
3:15 PM 48.2 °F 46.4 °F 93% 30.09 in 3.0 mi North - - N/A   Overcast
3:35 PM 48.2 °F 46.4 °F 93% 30.10 in 9.0 mi North - - N/A   Overcast
3:55 PM 48.2 °F 46.4 °F 93% 30.11 in 3.0 mi North - - 0.01 in   Overcast
4:15 PM 48.2 °F 46.4 °F 93% 30.12 in 3.0 mi North - - N/A   Overcast
4:35 PM 48.2 °F 46.4 °F 93% 30.12 in 2.5 mi North - - N/A   Overcast
4:55 PM 48.2 °F 44.6 °F 87% 30.12 in 5.0 mi North - - N/A   Overcast
5:15 PM 46.4 °F 44.6 °F 93% 30.13 in 8.0 mi North - - N/A   Overcast
5:35 PM 48.2 °F 44.6 °F 87% 30.14 in 9.0 mi North - - N/A   Overcast
6:15 PM 48.2 °F 44.6 °F 87% 30.14 in 7.0 mi North - - N/A   Overcast
6:35 PM 48.2 °F 44.6 °F 87% 30.15 in 8.0 mi North - - N/A   Overcast
7:15 PM 46.4 °F 44.6 °F 93% 30.15 in 7.0 mi North - - N/A   Overcast
7:35 PM 46.4 °F 44.6 °F 93% 30.16 in 8.0 mi North - - N/A   Overcast
7:55 PM 46.4 °F 44.6 °F 93% 30.16 in 8.0 mi North - - N/A   Overcast
8:15 PM 46.4 °F 42.8 °F 87% 30.17 in 8.0 mi North - - N/A   Overcast
8:35 PM 46.4 °F 42.8 °F 87% 30.17 in 10.0 mi North - - N/A   Overcast
8:55 PM 46.4 °F 42.8 °F 87% 30.18 in 10.0 mi North - - N/A   Overcast
9:15 PM 46.4 °F 42.8 °F 87% 30.18 in 10.0 mi North - - N/A   Overcast
9:35 PM 46.4 °F 42.8 °F 87% 30.18 in 10.0 mi North - - N/A   Mostly Cloudy
9:55 PM 46.4 °F 42.8 °F 87% 30.19 in 10.0 mi North - - N/A   Overcast
10:15 PM 46.4 °F 42.8 °F 87% 30.19 in 10.0 mi North - - N/A   Mostly Cloudy
10:35 PM 46.4 °F 42.8 °F 87% 30.19 in 10.0 mi North - - N/A   Scattered Clouds
11:15 PM 46.4 °F 42.8 °F 87% 30.20 in 10.0 mi North - - N/A   Mostly Cloudy
11:55 PM 46.4 °F 42.8 °F 87% 30.20 in 10.0 mi North - - N/A   Partly Cloudy